5NBRO DNYO-DAAT

Flight info

Callsign 5NBRO
Flight time N/A
Altitude 22000
Route YOL UV593 KAN UA604 TMS
Aircraft PC12/L-SDFGRWY/S

Departure

Time N/A
Airport Yola Airport (DNYO)

Arrival

Time 2026-05-07 19:51
Airport Aguenar – Hadj Bey Akhamok Airport (DAAT)
Time Latitude Longitude Altitude Speed Heading
2026-05-07 18:43 13.83084 8.32256 19746 ft 280 kts 358°
2026-05-07 18:43 13.86959 8.31892 19743 ft 279 kts 358°
2026-05-07 18:44 13.90834 8.31528 19745 ft 280 kts 358°
2026-05-07 18:44 13.94716 8.31164 19745 ft 280 kts 358°
2026-05-07 18:44 13.98595 8.30799 19743 ft 280 kts 358°
2026-05-07 18:44 14.02479 8.30435 19744 ft 280 kts 358°
2026-05-07 18:45 14.06357 8.30070 19745 ft 279 kts 358°
2026-05-07 18:45 14.10224 8.29706 19745 ft 279 kts 358°
2026-05-07 18:45 14.14053 8.29347 19745 ft 279 kts 358°
2026-05-07 18:45 14.17933 8.28981 19746 ft 279 kts 358°
2026-05-07 18:46 14.21802 8.28617 19746 ft 279 kts 358°
2026-05-07 18:46 14.25669 8.28253 19746 ft 279 kts 358°
2026-05-07 18:46 14.29547 8.27887 19752 ft 279 kts 358°
2026-05-07 18:46 14.33416 8.27523 19751 ft 279 kts 358°
2026-05-07 18:47 14.37288 8.27158 19749 ft 279 kts 358°
2026-05-07 18:47 14.41162 8.26793 19752 ft 279 kts 358°
2026-05-07 18:47 14.45047 8.26426 19754 ft 279 kts 358°
2026-05-07 18:47 14.48924 8.26061 19753 ft 280 kts 358°
2026-05-07 18:48 14.52803 8.25694 19754 ft 280 kts 358°
2026-05-07 18:48 14.56681 8.25328 19752 ft 280 kts 358°
2026-05-07 18:48 14.60516 8.24966 19754 ft 280 kts 358°
2026-05-07 18:48 14.64398 8.24599 19753 ft 280 kts 358°
2026-05-07 18:49 14.68290 8.24232 19755 ft 281 kts 358°
2026-05-07 18:49 14.72183 8.23863 19753 ft 281 kts 358°
2026-05-07 18:49 14.76086 8.23494 19756 ft 281 kts 358°
2026-05-07 18:49 14.79987 8.23125 19760 ft 281 kts 358°
2026-05-07 18:50 14.83882 8.22756 19764 ft 282 kts 358°
2026-05-07 18:50 14.87790 8.22387 19764 ft 282 kts 358°
2026-05-07 18:50 14.91702 8.22016 19762 ft 282 kts 358°
2026-05-07 18:50 14.95614 8.21645 19761 ft 282 kts 358°
2026-05-07 18:51 14.99520 8.21275 19763 ft 282 kts 358°
2026-05-07 18:51 15.03438 8.20903 19765 ft 282 kts 357°
2026-05-07 18:51 15.07353 8.20532 19763 ft 282 kts 357°
2026-05-07 18:51 15.11269 8.20160 19764 ft 282 kts 357°
2026-05-07 18:52 15.15181 8.19789 19762 ft 282 kts 357°
2026-05-07 18:52 15.19091 8.19418 19761 ft 282 kts 357°
2026-05-07 18:52 15.22963 8.19050 19763 ft 283 kts 357°
2026-05-07 18:52 15.26881 8.18677 19762 ft 283 kts 357°
2026-05-07 18:53 15.30808 8.18304 19767 ft 282 kts 357°
2026-05-07 18:53 15.34714 8.17933 19763 ft 282 kts 357°
2026-05-07 18:53 15.38631 8.17560 19769 ft 282 kts 357°
2026-05-07 18:53 15.42542 8.17188 19767 ft 282 kts 357°
2026-05-07 18:54 15.46459 8.16815 19770 ft 283 kts 357°
2026-05-07 18:54 15.50366 8.16443 19771 ft 282 kts 357°
2026-05-07 18:54 15.54288 8.16069 19769 ft 283 kts 357°
2026-05-07 18:54 15.58198 8.15696 19772 ft 283 kts 357°
2026-05-07 18:55 15.62122 8.15322 19774 ft 283 kts 356°
2026-05-07 18:55 15.66039 8.14948 19772 ft 283 kts 356°
2026-05-07 18:55 15.69951 8.14575 19773 ft 282 kts 356°
2026-05-07 18:55 15.73869 8.14201 19773 ft 283 kts 356°
2026-05-07 18:56 15.77737 8.13831 19773 ft 282 kts 356°
2026-05-07 18:56 15.81701 8.13453 19774 ft 282 kts 356°
2026-05-07 18:56 15.85566 8.13083 19777 ft 282 kts 356°
2026-05-07 18:56 15.89477 8.12709 19781 ft 282 kts 356°
2026-05-07 18:57 15.93390 8.12335 19780 ft 282 kts 356°
2026-05-07 18:57 15.97305 8.11961 19780 ft 283 kts 356°
2026-05-07 18:57 16.01231 8.11584 19777 ft 283 kts 356°
2026-05-07 18:57 16.05158 8.11208 19775 ft 283 kts 356°
2026-05-07 18:58 16.09071 8.10834 19773 ft 282 kts 356°
2026-05-07 18:58 16.12989 8.10458 19777 ft 282 kts 356°
2026-05-07 18:58 16.16897 8.10083 19773 ft 282 kts 356°
2026-05-07 18:58 16.20807 8.09708 19773 ft 282 kts 356°
2026-05-07 18:59 16.24714 8.09334 19773 ft 282 kts 356°
2026-05-07 18:59 16.28572 8.08963 19777 ft 282 kts 356°
2026-05-07 18:59 16.32477 8.08588 19771 ft 282 kts 356°
2026-05-07 18:59 16.36383 8.08213 19771 ft 282 kts 356°
2026-05-07 19:00 16.40287 8.07837 19772 ft 282 kts 356°
2026-05-07 19:00 16.44191 8.07462 19767 ft 282 kts 356°
2026-05-07 19:00 16.48097 8.07086 19769 ft 282 kts 356°
2026-05-07 19:00 16.52002 8.06710 19768 ft 282 kts 355°
2026-05-07 19:01 16.55909 8.06334 19770 ft 282 kts 355°
2026-05-07 19:01 16.59817 8.05958 19772 ft 282 kts 355°
2026-05-07 19:01 16.63714 8.05583 19775 ft 282 kts 355°
2026-05-07 19:01 16.67626 8.05206 19787 ft 282 kts 355°
2026-05-07 19:02 16.71533 8.04829 19802 ft 282 kts 355°
2026-05-07 19:02 16.75445 8.04451 19813 ft 282 kts 355°
2026-05-07 19:02 16.79353 8.04074 19825 ft 282 kts 355°
2026-05-07 19:02 16.83203 8.03702 19835 ft 282 kts 355°
2026-05-07 19:03 16.87116 8.03325 19847 ft 282 kts 355°
2026-05-07 19:03 16.91029 8.02946 19854 ft 282 kts 355°
2026-05-07 19:03 16.94944 8.02568 19849 ft 282 kts 355°
2026-05-07 19:03 16.98775 8.01770 19851 ft 281 kts 338°
2026-05-07 19:04 17.02381 8.00148 19855 ft 282 kts 336°
2026-05-07 19:04 17.05999 7.98543 19855 ft 282 kts 337°
2026-05-07 19:04 17.09616 7.96934 19851 ft 282 kts 336°
2026-05-07 19:04 17.13233 7.95324 19843 ft 282 kts 336°
2026-05-07 19:05 17.16848 7.93715 19830 ft 283 kts 336°
2026-05-07 19:05 17.20426 7.92122 19819 ft 283 kts 336°
2026-05-07 19:05 17.24049 7.90508 19810 ft 283 kts 336°
2026-05-07 19:05 17.27661 7.88898 19800 ft 282 kts 336°
2026-05-07 19:06 17.31282 7.87283 19790 ft 282 kts 336°
2026-05-07 19:06 17.38518 7.84055 19788 ft 282 kts 336°
2026-05-07 19:06 17.42135 7.82439 19788 ft 282 kts 336°
2026-05-07 19:07 17.45710 7.80842 19789 ft 283 kts 336°
2026-05-07 19:07 17.49325 7.79227 19789 ft 283 kts 336°
2026-05-07 19:07 17.52943 7.77609 19783 ft 283 kts 336°
2026-05-07 19:07 17.56564 7.75990 19783 ft 283 kts 336°
2026-05-07 19:08 17.60189 7.74368 19786 ft 283 kts 336°
2026-05-07 19:08 17.63808 7.72748 19780 ft 283 kts 336°
2026-05-07 19:08 17.67428 7.71126 19781 ft 283 kts 336°
2026-05-07 19:08 17.71049 7.69504 19782 ft 283 kts 336°
2026-05-07 19:09 17.74677 7.67878 19778 ft 283 kts 336°
2026-05-07 19:09 17.78291 7.66257 19777 ft 283 kts 336°
2026-05-07 19:09 17.81909 7.64634 19781 ft 283 kts 336°
2026-05-07 19:09 17.85528 7.63009 19781 ft 283 kts 335°
2026-05-07 19:10 17.89146 7.61385 19778 ft 283 kts 335°
2026-05-07 19:10 17.92728 7.59776 19779 ft 283 kts 335°
2026-05-07 19:10 17.96349 7.58148 19773 ft 283 kts 335°
2026-05-07 19:10 17.99974 7.56519 19775 ft 283 kts 335°
2026-05-07 19:11 18.03592 7.54891 19775 ft 283 kts 335°
2026-05-07 19:11 18.07205 7.53265 19776 ft 282 kts 335°
2026-05-07 19:11 18.10816 7.51639 19774 ft 282 kts 335°
2026-05-07 19:11 18.14434 7.50009 19773 ft 282 kts 335°
2026-05-07 19:12 18.18050 7.48380 19768 ft 282 kts 335°
2026-05-07 19:12 18.21661 7.46752 19770 ft 282 kts 335°
2026-05-07 19:12 18.25269 7.45125 19766 ft 282 kts 335°
2026-05-07 19:12 18.28882 7.43494 19771 ft 282 kts 335°
2026-05-07 19:13 18.32494 7.41863 19770 ft 282 kts 335°
2026-05-07 19:13 18.36056 7.40255 19769 ft 282 kts 335°
2026-05-07 19:13 18.39680 7.38617 19768 ft 282 kts 335°
2026-05-07 19:13 18.43287 7.36987 19767 ft 282 kts 335°
2026-05-07 19:14 18.46891 7.35356 19767 ft 282 kts 335°
2026-05-07 19:14 18.50500 7.33717 19771 ft 282 kts 334°
2026-05-07 19:14 18.54042 7.31959 19768 ft 282 kts 334°
2026-05-07 19:14 18.57613 7.30249 19768 ft 282 kts 334°
2026-05-07 19:15 18.61187 7.28521 19767 ft 282 kts 334°
2026-05-07 19:15 18.64757 7.26798 19767 ft 282 kts 334°
2026-05-07 19:15 18.68332 7.25071 19772 ft 282 kts 334°
2026-05-07 19:15 18.71908 7.23343 19769 ft 283 kts 334°
2026-05-07 19:16 18.75443 7.21633 19767 ft 283 kts 334°
2026-05-07 19:16 18.79041 7.19893 19766 ft 284 kts 334°
2026-05-07 19:16 18.82627 7.18158 19768 ft 284 kts 334°
2026-05-07 19:16 18.86243 7.16407 19766 ft 284 kts 334°
2026-05-07 19:17 18.89832 7.14668 19770 ft 284 kts 334°
2026-05-07 19:17 18.93431 7.12924 19771 ft 284 kts 334°
2026-05-07 19:17 18.97025 7.11181 19771 ft 284 kts 334°
2026-05-07 19:17 19.00582 7.09456 19769 ft 284 kts 334°
2026-05-07 19:18 19.04175 7.07712 19770 ft 284 kts 334°
2026-05-07 19:18 19.07771 7.05965 19772 ft 284 kts 333°
2026-05-07 19:18 19.11364 7.04220 19771 ft 283 kts 333°
2026-05-07 19:18 19.14945 7.02479 19770 ft 283 kts 333°
2026-05-07 19:19 19.18521 7.00741 19769 ft 282 kts 333°
2026-05-07 19:19 19.22089 6.99004 19769 ft 282 kts 333°
2026-05-07 19:19 19.25654 6.97270 19769 ft 282 kts 333°
2026-05-07 19:19 19.29212 6.95537 19770 ft 281 kts 333°
2026-05-07 19:20 19.32767 6.93804 19771 ft 281 kts 333°
2026-05-07 19:20 19.36317 6.92074 19769 ft 280 kts 333°
2026-05-07 19:20 19.38665 6.90929 19771 ft 280 kts 333°
2026-05-07 19:20 19.43401 6.88619 19768 ft 280 kts 333°
2026-05-07 19:21 19.45748 6.87473 19770 ft 280 kts 333°
2026-05-07 19:21 19.49284 6.85746 19771 ft 280 kts 333°
2026-05-07 19:21 19.52824 6.84017 19776 ft 280 kts 333°
2026-05-07 19:21 19.56358 6.82289 19770 ft 280 kts 333°
2026-05-07 19:22 19.59903 6.80556 19774 ft 280 kts 333°
2026-05-07 19:22 19.63445 6.78823 19775 ft 280 kts 333°
2026-05-07 19:22 19.66980 6.77093 19777 ft 280 kts 332°
2026-05-07 19:22 19.70522 6.75358 19769 ft 280 kts 332°
2026-05-07 19:23 19.74059 6.73625 19771 ft 280 kts 332°
2026-05-07 19:23 19.77600 6.71889 19772 ft 280 kts 332°
2026-05-07 19:23 19.81154 6.70146 19775 ft 281 kts 332°
2026-05-07 19:23 19.84696 6.68407 19774 ft 281 kts 332°
2026-05-07 19:24 19.88243 6.66666 19773 ft 281 kts 332°
2026-05-07 19:24 19.91803 6.64917 19775 ft 281 kts 332°
2026-05-07 19:24 19.95364 6.63168 19779 ft 282 kts 332°
2026-05-07 19:24 19.98928 6.61415 19779 ft 282 kts 332°
2026-05-07 19:25 20.02493 6.59661 19777 ft 283 kts 332°
2026-05-07 19:25 20.06058 6.57907 19776 ft 283 kts 332°
2026-05-07 19:25 20.09629 6.56148 19780 ft 283 kts 332°
2026-05-07 19:25 20.13201 6.54389 19781 ft 283 kts 332°
2026-05-07 19:26 20.16743 6.52643 19782 ft 284 kts 332°
2026-05-07 19:26 20.20324 6.50877 19781 ft 284 kts 332°
2026-05-07 19:26 20.23921 6.49102 19781 ft 284 kts 332°
2026-05-07 19:26 20.27510 6.47330 19782 ft 284 kts 332°
2026-05-07 19:27 20.31105 6.45554 19782 ft 284 kts 332°
2026-05-07 19:27 20.34690 6.43783 19786 ft 285 kts 332°
2026-05-07 19:27 20.38291 6.42002 19783 ft 285 kts 332°
2026-05-07 19:27 20.41888 6.40223 19785 ft 285 kts 332°
2026-05-07 19:28 20.45482 6.38444 19786 ft 285 kts 332°
2026-05-07 19:28 20.49072 6.36666 19784 ft 285 kts 332°
2026-05-07 19:28 20.52665 6.34886 19789 ft 284 kts 332°
2026-05-07 19:28 20.56222 6.33122 19786 ft 285 kts 332°
2026-05-07 19:29 20.59816 6.31340 19790 ft 285 kts 332°
2026-05-07 19:29 20.63409 6.29557 19792 ft 285 kts 332°
2026-05-07 19:29 20.66996 6.27776 19790 ft 284 kts 332°
2026-05-07 19:29 20.70581 6.25995 19791 ft 284 kts 332°
2026-05-07 19:30 20.74161 6.24217 19793 ft 284 kts 332°
2026-05-07 19:30 20.77747 6.22433 19791 ft 284 kts 332°
2026-05-07 19:30 20.81326 6.20652 19793 ft 283 kts 332°
2026-05-07 19:30 20.84892 6.18877 19791 ft 283 kts 332°
2026-05-07 19:31 20.88472 6.17094 19792 ft 282 kts 332°
2026-05-07 19:31 20.92042 6.15315 19791 ft 283 kts 332°
2026-05-07 19:31 20.95609 6.13536 19798 ft 283 kts 332°
2026-05-07 19:31 20.99176 6.11757 19797 ft 283 kts 332°
2026-05-07 19:32 21.02746 6.09975 19796 ft 283 kts 332°
2026-05-07 19:32 21.06321 6.08191 19796 ft 283 kts 332°
2026-05-07 19:32 21.09850 6.06427 19797 ft 283 kts 331°
2026-05-07 19:32 21.13420 6.04642 19798 ft 283 kts 331°
2026-05-07 19:33 21.16986 6.02859 19799 ft 283 kts 331°
2026-05-07 19:33 21.20565 6.01068 19798 ft 283 kts 331°
2026-05-07 19:33 21.24133 5.99281 19800 ft 284 kts 331°
2026-05-07 19:33 21.27713 5.97488 19803 ft 284 kts 331°
2026-05-07 19:34 21.31291 5.95694 19800 ft 284 kts 331°
2026-05-07 19:34 21.34873 5.93897 19803 ft 284 kts 330°
2026-05-07 19:34 21.38466 5.92095 19800 ft 284 kts 330°
2026-05-07 19:34 21.42009 5.90315 19805 ft 285 kts 330°
2026-05-07 19:35 21.45602 5.88511 19806 ft 285 kts 330°
2026-05-07 19:35 21.49203 5.86701 19808 ft 286 kts 331°
2026-05-07 19:35 21.52802 5.84891 19810 ft 286 kts 331°
2026-05-07 19:35 21.56407 5.83077 19810 ft 286 kts 331°
2026-05-07 19:36 21.60010 5.81263 19811 ft 286 kts 331°
2026-05-07 19:36 21.63626 5.79441 19811 ft 287 kts 331°
2026-05-07 19:36 21.67249 5.77616 19811 ft 287 kts 331°
2026-05-07 19:36 21.70234 5.76111 19811 ft 288 kts 331°
2026-05-07 19:37 21.72046 5.75197 19815 ft 288 kts 331°
2026-05-07 19:37 21.73841 5.74291 19815 ft 288 kts 331°
2026-05-07 19:37 21.75655 5.73375 19818 ft 288 kts 331°
2026-05-07 19:37 21.77472 5.72458 19819 ft 288 kts 331°
2026-05-07 19:38 21.79285 5.71542 19818 ft 288 kts 331°
2026-05-07 19:38 21.81106 5.70622 19818 ft 289 kts 331°
2026-05-07 19:38 21.82927 5.69702 19816 ft 289 kts 331°
2026-05-07 19:38 21.84746 5.68783 19817 ft 289 kts 331°
2026-05-07 19:39 21.86566 5.67863 19820 ft 289 kts 331°
2026-05-07 19:39 21.88387 5.66942 19824 ft 289 kts 331°
2026-05-07 19:39 21.90208 5.66021 19826 ft 289 kts 331°
2026-05-07 19:39 21.92027 5.65100 19824 ft 289 kts 331°
2026-05-07 19:40 21.93832 5.64186 19824 ft 289 kts 331°
2026-05-07 19:40 21.95655 5.63264 19824 ft 289 kts 331°
2026-05-07 19:40 21.97481 5.62339 19828 ft 290 kts 331°
2026-05-07 19:40 21.99302 5.61417 19827 ft 290 kts 331°
2026-05-07 19:41 22.01126 5.60492 19828 ft 290 kts 331°
2026-05-07 19:41 22.02950 5.59568 19830 ft 290 kts 331°
2026-05-07 19:41 22.04775 5.58642 19833 ft 290 kts 331°
2026-05-07 19:41 22.06601 5.57716 19834 ft 290 kts 331°
2026-05-07 19:42 22.08433 5.56789 19831 ft 291 kts 331°
2026-05-07 19:42 22.10264 5.55860 19836 ft 291 kts 331°
2026-05-07 19:42 22.10971 5.55501 19835 ft 291 kts 331°
2026-05-07 19:42 22.11648 5.55158 19831 ft 279 kts 331°
2026-05-07 19:43 22.13315 5.54319 19815 ft 259 kts 330°
2026-05-07 19:43 22.14991 5.53457 19821 ft 273 kts 330°
2026-05-07 19:43 22.16735 5.52568 19828 ft 281 kts 332°
2026-05-07 19:43 22.18579 5.51770 19589 ft 294 kts 337°
2026-05-07 19:44 22.20558 5.51059 19112 ft 306 kts 339°
2026-05-07 19:44 22.22585 5.50301 18647 ft 308 kts 337°
2026-05-07 19:44 22.24595 5.49488 18187 ft 309 kts 336°
2026-05-07 19:44 22.26605 5.48674 17660 ft 307 kts 337°
2026-05-07 19:45 22.28612 5.47881 17127 ft 306 kts 337°
2026-05-07 19:45 22.31430 5.46770 16400 ft 303 kts 337°
2026-05-07 19:45 22.35303 5.45235 15397 ft 298 kts 337°
2026-05-07 19:45 22.39166 5.43705 14424 ft 290 kts 338°
2026-05-07 19:46 22.42676 5.42313 13763 ft 287 kts 338°
2026-05-07 19:46 22.46458 5.40812 13015 ft 287 kts 338°
2026-05-07 19:46 22.50356 5.40783 12249 ft 290 kts 22°
2026-05-07 19:46 22.53951 5.42792 11294 ft 293 kts 22°
2026-05-07 19:47 22.57751 5.44237 10469 ft 285 kts 18°
2026-05-07 19:47 22.61435 5.45758 9755 ft 282 kts 19°
2026-05-07 19:47 22.65073 5.47231 9034 ft 267 kts 18°
2026-05-07 19:47 22.68255 5.48527 8404 ft 221 kts 17°
2026-05-07 19:48 22.70879 5.49592 8023 ft 190 kts 16°
2026-05-07 19:48 22.73284 5.50568 7610 ft 182 kts 15°
2026-05-07 19:48 22.75576 5.51499 7162 ft 172 kts 14°
2026-05-07 19:48 22.77839 5.52401 6727 ft 167 kts
2026-05-07 19:49 22.79158 5.52385 6447 ft 150 kts 343°
2026-05-07 19:49 22.80067 5.52000 6275 ft 130 kts 327°
2026-05-07 19:49 22.80744 5.51419 6083 ft 126 kts 313°
2026-05-07 19:49 22.81236 5.50683 5869 ft 114 kts 300°
2026-05-07 19:50 22.81584 5.49497 5602 ft 117 kts 280°
2026-05-07 19:50 22.81577 5.48615 5390 ft 116 kts 267°
2026-05-07 19:50 22.81451 5.47739 5193 ft 119 kts 266°
2026-05-07 19:50 22.81333 5.46826 4972 ft 125 kts 266°
2026-05-07 19:51 22.81203 5.45873 4702 ft 128 kts 265°
2026-05-07 19:51 22.81089 5.44982 4479 ft 107 kts 267°
2026-05-07 19:51 22.81007 5.44361 4479 ft 53 kts 263°
2026-05-07 19:51 22.80976 5.44115 4478 ft 27 kts 261°
2026-05-07 19:52 22.81068 5.44117 4476 ft 10 kts 53°
2026-05-07 19:52 22.81102 5.44162 4475 ft 0 kts 44°
2026-05-07 19:52 22.81134 5.44212 4475 ft 17 kts 56°
2026-05-07 19:52 22.81181 5.44386 4475 ft 32 kts 83°
2026-05-07 19:53 22.81217 5.44644 4479 ft 30 kts 82°
2026-05-07 19:53 22.81239 5.44788 4480 ft 15 kts 77°
2026-05-07 19:53 22.81287 5.44896 4479 ft 10 kts 68°
2026-05-07 19:53 22.81347 5.44882 4481 ft 13 kts 316°
2026-05-07 19:54 22.81360 5.44868 4481 ft 0 kts 314°